Regional Weather Roundup
Issued by NWS

Home | Current Version | Previous Version | Graphics & Text | Print | Product List | Glossary Off
Versions: 1 2 3 4 5 6 7 8 9 10 11 12 13 14 15 16 17 18 19 20 21 22 23 24 25 26 27 28 29 30 31 32 33 34 35 36 37 38 39 40 41 42 43 44 45 46 47 48 49 50

000
ASUS43 KMKX 132200
RWRWI

WISCONSIN REGIONAL WEATHER ROUNDUP
NATIONAL WEATHER SERVICE MILWAUKEE/SULLIVAN WI
500 PM CDT SUN JUL 13 2014

NOTE: "FAIR" INDICATES FEW OR NO CLOUDS BELOW 12,000 FEET WITH NO
SIGNIFICANT WEATHER AND/OR OBSTRUCTIONS TO VISIBILITY.

WIZ001-002-006>008-014>016-023>028-132300-
NORTHWEST WISCONSIN

CITY           SKY/WX    TMP DP  RH WIND       PRES   REMARKS
SUPERIOR ARPT  CLOUDY    70  47  44 W15G23    29.83F
ASHLAND        PTSUNNY   71  48  43 W12G21    29.84S
HAYWARD        PTSUNNY   72  45  37 VRB6      29.87S
SIREN          MOSUNNY   73  43  34 NW13G22   29.88F
RICE LAKE      PTSUNNY   71  51  49 W10       29.90F
LADYSMITH      PTSUNNY   71  49  44 W9G17     29.90F
EAU CLAIRE     NOT AVBL
MENOMONIE      PTCLDY    75  46  36 W14       29.90F
NEW RICHMOND   SUNNY     73  51  46 W9G18     29.90F
OSCEOLA        MOSUNNY   74  46  36 W14G22    29.92S
$$

WIZ003>005-009-010-017-018-132300-
NORTH CENTRAL WISCONSIN

CITY           SKY/WX    TMP DP  RH WIND       PRES   REMARKS
WOODRUFF       MOSUNNY   72  46  39 W14G21    29.87F
RHINELANDER    MOSUNNY   70  45  40 W15G23    29.89S
EAGLE RIVER    MOSUNNY   69  43  37 W10       29.86S
LAND O LAKES   MOSUNNY   69  40  35 W8        29.87S
PHILLIPS       PTSUNNY   70  47  43 W9G17     29.88S
TOMAHAWK       MOSUNNY   70  45  40 W5        29.89F
MEDFORD        MOSUNNY   70  50  48 W14G20    29.90F
MERRILL        CLOUDY    70  47  43 W10       29.89S
$$

WIZ029-030-035-036-043>047-132300-
CENTRAL WISCONSIN

CITY           SKY/WX    TMP DP  RH WIND       PRES   REMARKS
WAUSAU         SUNNY     73  42  32 NW18      29.88S
MOSINEE        MOSUNNY   73  46  38 W16G24    29.91S
MARSHFIELD     MOSUNNY   72  51  47 NW10      29.90F
STEVENS POINT  MOSUNNY   73  43  34 W10G18    29.90S
WAUPACA        SUNNY     79  39  23 W9        29.88S
WAUTOMA        NOT AVBL
WISC RAPIDS    SUNNY     77  45  32 NW10G23   29.91S
CAMP DOUGLAS   NOT AVBL
$$

WIZ011>013-019>022-031-037>040-048>050-132300-
NORTHEAST WISCONSIN

CITY           SKY/WX    TMP DP  RH WIND       PRES   REMARKS
ANTIGO         PTSUNNY   69  47  45 NW15      29.89S
STURGEON BAY   SUNNY     75  46  35 W12       29.86R
GREEN BAY      SUNNY     78  45  30 W16       29.85S
MANITOWOC      NOT AVBL
APPLETON       MOSUNNY   75  39  27 W16       29.88S
CLINTONVILLE   SUNNY     77  39  25 NW14G23   29.86S
OSHKOSH        SUNNY     78  49  35 NW9       29.86F
$$

WIZ032>034-041-042-053>061-132300-
SOUTHWEST WISCONSIN

CITY           SKY/WX    TMP DP  RH WIND       PRES   REMARKS
LA CROSSE      MOSUNNY   80  55  42 W13       29.90F HX  80
SPARTA         SUNNY     76  41  28 NW14      29.92S
VIROQUA        FAIR      74  56  55 NW13      29.93S
BOSCOBEL       SUNNY     81  50  33 W14G25    29.91R HX  80
PRAIRIE DU CHI MOSUNNY   79  52  38 NW15G21   29.91R
PLATTEVILLE    FAIR      81  57  43 W13G22    29.92F HX  81
$$

WIZ056-057-062-063-064-067-068-132300-
SOUTH CENTRAL WISCONSIN

CITY           SKY/WX    TMP DP  RH WIND       PRES   REMARKS
BARABOO/DELLS  SUNNY     78  53  42 NW12G18   29.90S
LONE ROCK      NOT AVBL
WATERTOWN      PTSUNNY   80  60  49 W13G20    29.87S HX  81
MADISON        MOSUNNY   82  58  43 NW10G18   29.88S HX  82
MIDDLETON      FAIR      82  57  42 W14G22    29.89S HX  81
MONROE         MOSUNNY   81  63  54 W15G21    29.90F HX  82
JANESVILLE     NOT AVBL
$$

WIZ051-052-058>065-066-070>072-132300-
SOUTHEAST WISCONSIN

CITY           SKY/WX    TMP DP  RH WIND       PRES   REMARKS
MILWAUKEE      MOSUNNY   83  54  36 W18G26    29.85F HX  82
WAUKESHA       MOSUNNY   79  57  47 W13       29.88F HX  80
MILWAUKEE/TIMM MOSUNNY   81  54  39 W17G23    29.86F HX  80
RACINE         SUNNY     84  61  45 W12       29.87F HX  84
BURLINGTON     MOSUNNY   78  63  59 W8        29.88S HX  80
KENOSHA        MOSUNNY   79  64  60 W7        29.87F HX  81
FOND DU LAC    SUNNY     78  52  40 NW12      29.87S
SHEBOYGAN      SUNNY     78  54  43 NW12G18   29.86S
WEST BEND      CLOUDY    77  55  47 NW9       29.88R
JUNEAU         MOSUNNY   77  41  27 NW12G18   29.89S
$$

LSZ147-162-132300-
LAKE SUPERIOR

STATION/POSITION TIME  TEMP    WIND        PRES    WAVE
                       AIR SEA DIR/SP/G            HT/PER
                 (UTC) (F)     (DEG/KT/KT) (MB)    (FT/S)
W MID LAKE BUOY  2050   48 39  240/ 14/ 14 1009.3F   2/ 4
PORT WING        2140   68     240/ 10/ 14 1010.2F
SAXON HARBOR     2100          260/  5/ 13 1010.5F
$$

LMZ867-665-643>646-132300-
LAKE MICHIGAN

STATION/POSITION TIME  TEMP    WIND        PRES    WAVE
                       AIR SEA DIR/SP/G            HT/PER
                 (UTC) (F)     (DEG/KT/KT) (MB)    (FT/S)
N MID LAKE BUOY  2050   64 60  290/  4/  6 1009.9R   1/ 4
NORTHPORT PIER   2100   72      40/  2/  2 1010.2F
KEWAUNEE LAKESHO 2100   78     290/  7/ 13 1011.4S
SHEBOYGAN LAKESH 2100   78     300/ 13/ 15 1010.9F
PORT WASHINGTON  2140   81     310/  7/ 12 1011.5S
MILWAUKEE LAKESH 2100   80     270/  9/ 14   N/A
S MID LAKE BUOY  2050   64 62  190/ 10/ 12 1011.7F   1
KENOSHA   LAKESH 2100   83     270/ 16/ 22   N/A
$$

TC  - TEMPERATURE IN CELSIUS
VSB - VISIBILITY IN STATUTE MILES
WCI - WIND CHILL INDEX
HX  - HEAT INDEX




USA.gov is the U.S. government's official web portal to all federal, state and local government web resources and services.